Wind_Speed
30 36 45 50 52 57 56 57 56 54 52 49 47 46 46 45 44 49 50 58 55 52 32 30 21 27 30 28 28 32 24 30 30 28 24 14 16 23 20 20 18 19 15 19 20 14 16 18 16 16 12 13 13 10
26 31 37 43 44 52 55 59 61 57 55 52 49 47 46 45 45 45 48 49 56 52 21 30 29 23 27 22 24 29 32 27 30 30 27 19 18 15 22 18 26 20 28 19 19 19 19 14 10 12 11 11 12 12
23 30 35 38 40 50 51 56 58 61 57 54 50 47 46 44 44 43 46 45 52 56 31 26 31 22 22 24 22 26 24 29 27 30 24 23 15 22 23 26 26 24 25 27 27 30 28 25 21 18 17 19 17 15
19 23 32 40 46 49 51 52 54 57 58 54 51 49 45 44 41 42 44 41 46 55 49 13 23 36 28 23 20 21 19 23 30 28 28 31 28 22 21 25 16 19 21 27 27 26 22 21 22 25 24 23 21 20
9 10 16 28 42 48 51 52 50 53 56 56 52 48 48 41 38 38 38 36 45 53 30 35 16 30 35 24 22 22 22 28 28 30 30 28 31 19 16 15 20 23 15 17 19 18 18 18 21 22 20 19 21 22
20 20 11 31 45 51 53 51 52 48 55 55 53 52 46 39 37 36 35 34 44 49 17 32 17 34 36 26 14 20 24 25 26 24 21 23 16 9 6 17 21 23 23 23 24 23 23 23 23 20 18 18 19 23
34 31 32 45 52 55 52 47 50 50 53 58 55 51 47 41 40 41 38 43 43 41 45 29 11 20 20 28 30 20 21 20 19 18 16 15 15 18 23 27 22 22 19 17 20 21 22 23 22 21 20 20 21 23
40 41 41 48 51 48 43 47 52 50 49 62 55 52 42 37 33 34 28 38 39 24 33 19 9 21 21 22 22 20 24 22 22 19 16 14 13 15 16 15 15 15 15 14 16 18 18 19 20 20 19 18 20 24
49 48 48 49 52 53 54 55 54 54 55 52 50 46 39 34 35 36 24 36 31 30 21 24 17 22 27 22 26 31 21 14 9 15 16 14 19 12 8 10 10 10 9 9 10 12 15 17 18 18 18 17 18 23
51 52 54 54 53 55 56 57 59 60 58 55 51 45 39 37 34 30 17 18 25 19 13 13 17 15 26 35 28 19 13 14 8 16 15 19 22 20 16 14 12 10 9 11 12 14 15 16 17 15 14 15 17 21
47 50 52 56 58 57 57 59 59 58 54 52 51 38 38 33 31 24 13 20 10 12 18 18 16 13 25 31 29 21 10 8 6 6 10 8 23 23 18 17 17 18 19 17 17 18 16 16 15 14 15 14 16 18
48 49 48 48 48 49 50 51 53 53 51 47 43 42 39 26 16 8 15 9 5 7 12 20 20 20 25 27 16 9 9 9 5 9 9 10 20 17 15 17 18 18 18 17 18 16 15 14 13 12 12 13 13 15
48 47 43 41 40 42 45 46 42 39 37 36 41 27 20 6 6 7 10 9 9 15 16 22 25 25 24 26 9 7 8 7 5 9 6 12 11 10 9 8 10 10 11 12 13 13 13 12 11 10 8 9 10 12
41 43 38 35 35 35 42 43 35 37 39 28 17 10 6 5 8 8 16 14 10 15 20 23 24 18 24 15 8 5 7 6 8 7 9 10 8 8 7 6 6 8 9 10 12 12 11 10 10 8 5 6 9 11
31 35 35 36 32 35 42 36 26 19 14 11 7 3 5 4 10 11 17 18 13 19 25 31 25 26 21 8 6 6 7 6 8 7 7 7 8 7 6 7 7 7 8 9 9 9 9 9 9 7 5 7 9 12
22 25 27 27 30 40 40 31 22 11 9 5 4 6 8 9 12 15 16 14 20 27 28 26 15 10 12 4 7 7 5 5 4 4 8 7 6 6 7 7 8 8 8 7 7 7 8 8 8 8 8 8 10 11
15 17 20 23 27 24 12 5 1 1 2 7 11 10 9 11 12 17 20 27 31 32 30 20 7 10 7 8 7 7 6 3 5 6 4 4 5 7 8 7 7 6 6 6 5 5 6 6 7 7 7 9 11 12
9 20 33 29 21 11 4 2 6 6 16 15 20 14 18 21 21 23 29 30 31 28 22 13 5 11 5 6 9 8 7 7 6 5 4 3 3 4 5 5 5 5 5 5 5 4 4 5 6 6 7 8 10 11
9 17 29 27 20 9 2 5 4 18 21 24 20 17 24 17 21 22 21 22 21 19 17 13 5 9 10 6 6 9 9 8 7 5 3 3 2 2 3 4 4 4 5 6 5 3 3 4 5 7 7 7 8 9
11 13 16 22 21 16 6 2 12 18 19 22 19 17 18 17 15 14 14 14 14 13 9 8 6 5 8 11 11 10 9 8 6 4 3 2 2 1 2 2 3 2 1 3 4 4 4 4 5 5 7 8 9 9
9 13 11 12 15 13 7 9 8 16 21 18 20 17 17 13 11 12 12 12 12 11 8 6 9 12 11 11 10 9 8 7 5 4 3 2 2 1 1 1 2 2 3 2 2 3 3 5 6 6 6 7 9 13
10 10 8 9 12 11 8 9 12 19 17 19 18 16 14 12 11 12 11 10 9 9 11 15 14 12 10 9 8 7 6 5 4 3 2 2 2 3 3 4 5 5 5 6 7 7 7 8 8 8 8 8 8 10
10 10 7 8 7 4 11 14 17 15 12 17 18 16 17 15 13 11 8 8 12 15 14 13 11 9 8 8 8 7 5 4 3 2 2 2 3 3 4 5 6 7 8 9 9 9 9 11 11 10 11 11 11 12
11 10 8 4 4 6 16 11 13 13 13 16 15 16 16 15 13 10 8 12 14 14 12 11 9 8 7 6 5 5 4 4 3 3 5 6 7 8 10 10 11 11 11 10 10 10 11 12 12 12 12 12 12 12
7 6 3 4 6 12 12 12 11 9 13 13 12 12 15 14 12 9 11 14 14 13 12 10 9 7 5 4 3 3 3 4 6 7 6 6 7 8 9 10 11 12 12 13 13 13 13 12 12 12 12 12 12 13
4 3 4 7 11 11 11 13 11 13 14 10 9 11 13 11 9 5 12 14 12 11 10 9 8 7 7 7 7 7 8 9 9 9 9 8 9 10 10 10 10 11 11 12 11 11 11 11 11 11 11 12 13 14
4 4 7 9 10 12 13 11 13 14 12 6 10 12 10 6 7 7 9 11 11 12 12 12 12 12 12 12 11 11 11 12 11 10 11 11 12 12 11 11 11 11 11 11 11 10 10 11 11 11 12 13 13 14
8 10 10 10 10 10 12 13 12 10 8 8 12 10 6 7 7 9 11 11 11 11 11 10 10 9 8 9 9 9 9 9 10 10 10 11 12 12 12 11 10 10 10 10 10 10 10 11 11 12 13 12 12 13
11 11 10 10 10 11 9 8 6 7 7 6 8 9 7 8 7 8 8 7 7 7 6 6 6 6 7 8 9 11 12 12 12 12 11 11 12 11 11 11 10 10 10 10 10 10 10 11 12 12 12 12 12 12
9 9 9 8 7 7 7 6 7 6 5 3 3 4 4 5 6 7 8 9 10 10 10 10 11 12 13 12 11 11 11 11 11 11 12 12 12 12 11 11 10 10 9 9 9 10 10 10 11 11 11 11 10 11
6 7 6 6 5 5 4 5 4 3 3 4 5 7 8 9 10 12 13 13 14 15 16 16 16 15 14 13 13 13 13 13 13 14 15 15 14 13 13 12 11 11 10 10 10 10 10 9 9 9 9 10 10 11
4 4 4 4 5 5 5 5 5 5 6 9 10 10 11 12 14 15 16 18 19 19 19 18 18 17 16 16 16 17 17 17 18 17 15 14 14 13 13 12 12 11 11 10 10 9 9 9 9 9 9 9 9 9
3 4 4 5 5 6 7 8 9 10 8 6 7 5 4 7 10 11 12 14 16 17 18 19 19 18 18 18 18 18 18 18 17 16 15 14 13 12 12 12 11 10 10 9 9 8 8 8 8 8 7 7 7 6
Wind_Direction
247 236 231 226 223 221 219 217 217 216 214 212 211 210 210 208 206 208 208 206 208 216 229 219 228 230 228 229 235 233 220 222 216 210 220 211 224 230 237 242 244 235 224 224 225 230 258 267 260 250 278 288 296 309
265 254 240 229 222 217 213 213 213 210 211 211 210 209 208 206 203 205 209 207 208 211 212 218 217 228 231 231 238 228 230 227 224 226 216 222 224 226 236 231 237 233 235 236 229 247 262 278 259 274 277 294 304 295
265 252 243 234 224 216 211 208 206 207 208 206 206 205 203 198 198 204 205 204 206 211 202 207 206 213 220 213 211 225 232 229 231 227 238 238 222 238 233 238 241 241 245 243 250 257 255 266 270 278 282 282 282 282
284 262 241 232 221 207 204 202 198 198 200 199 197 196 192 190 194 199 199 201 202 207 215 246 220 220 230 234 228 226 232 236 232 241 242 237 242 256 245 237 241 247 253 256 246 252 255 264 277 282 278 270 266 263
350 299 245 219 201 193 190 190 191 189 188 191 191 187 183 184 187 192 195 197 205 204 223 226 256 221 221 239 238 224 230 235 235 234 234 239 249 236 223 238 245 247 260 249 265 275 272 269 271 275 272 265 255 251
48 45 85 154 161 167 172 176 180 182 178 178 180 178 176 176 178 185 193 202 198 191 160 211 220 215 209 219 220 218 234 234 240 233 228 225 216 233 261 255 255 268 273 269 264 266 268 270 271 279 270 267 265 248
60 82 98 126 137 149 150 159 168 172 170 166 173 172 174 182 183 188 190 193 195 210 221 235 189 206 210 219 233 220 238 218 197 200 209 224 239 244 252 260 271 274 269 265 260 260 262 269 272 274 270 265 260 244
75 85 105 116 125 134 143 152 156 162 158 165 164 165 168 173 179 182 184 192 193 206 211 220 204 171 192 194 201 217 180 189 200 211 210 233 238 239 257 271 264 253 254 257 259 263 267 271 275 278 271 273 269 243
82 88 99 113 122 129 135 140 143 146 146 151 160 164 164 174 174 169 186 193 189 191 198 214 189 184 205 213 198 183 192 180 195 216 227 234 234 234 249 268 247 235 239 255 275 278 275 275 277 277 272 275 269 243
86 90 97 105 114 121 127 133 136 137 137 139 145 152 161 166 165 172 175 191 203 208 198 173 172 173 177 179 171 170 176 189 225 228 230 228 245 253 260 257 253 255 251 269 287 285 287 287 280 275 267 273 265 245
87 92 99 107 111 116 121 127 131 133 136 139 143 150 150 158 165 177 194 195 206 175 200 204 202 193 188 192 186 191 162 187 229 219 214 245 257 264 266 258 256 258 265 273 280 284 282 282 280 276 269 266 262 239
87 92 97 106 113 117 120 125 130 134 139 145 146 142 145 149 154 167 164 180 169 177 185 196 191 193 193 190 166 148 168 185 214 202 212 249 262 270 267 263 260 260 264 269 270 271 272 274 277 271 260 255 251 231
92 98 98 95 109 116 120 122 128 135 140 142 134 132 157 120 157 163 163 167 178 169 180 182 180 185 189 179 153 155 191 205 197 192 228 244 261 257 253 251 253 257 258 259 261 262 264 271 277 276 266 253 234 226
92 94 108 114 109 122 126 123 118 123 133 131 138 114 142 176 177 182 183 185 195 178 181 178 167 166 157 146 159 192 201 196 204 223 230 249 255 229 233 237 244 253 265 269 263 255 258 265 268 265 251 226 216 214
91 91 93 112 125 124 133 128 127 126 132 123 108 185 194 184 178 179 176 174 161 156 163 162 162 163 157 167 184 191 196 214 217 228 234 222 212 223 238 247 261 283 280 277 258 252 259 261 259 252 232 211 203 205
101 100 101 105 129 150 134 136 132 102 117 130 170 159 159 153 161 167 170 171 169 165 163 160 151 161 180 208 196 205 207 223 241 237 200 205 214 231 243 259 271 284 288 271 261 263 265 261 251 232 225 217 212 213
118 130 126 131 142 132 101 81 109 146 161 119 131 142 155 142 145 148 150 157 159 167 165 156 159 181 191 221 211 206 217 214 182 175 187 209 233 248 254 258 269 282 267 267 266 263 269 262 251 239 231 229 225 224
115 141 136 132 134 137 99 54 170 103 125 126 130 141 144 148 153 155 159 161 169 176 170 178 194 194 203 209 218 223 188 176 174 170 170 194 245 254 236 239 259 263 246 255 266 261 260 260 249 240 239 238 234 231
143 157 165 161 162 158 59 69 106 133 125 144 147 142 152 153 156 165 168 175 176 181 187 208 225 217 221 234 180 168 169 169 163 162 178 211 237 243 234 237 242 251 242 243 245 260 261 263 265 254 239 233 233 232
159 167 180 196 199 215 242 167 156 145 144 141 160 166 173 170 165 162 165 169 182 195 211 226 254 195 167 158 156 158 163 165 171 176 171 156 167 185 211 226 223 223 235 237 239 251 266 263 257 255 248 238 231 223
152 167 168 171 181 187 221 170 163 165 160 154 153 158 166 164 172 185 192 192 198 206 223 205 161 153 150 152 155 159 166 172 179 186 198 214 223 237 240 247 241 235 237 243 240 244 242 249 258 261 261 258 242 230
155 153 151 165 187 195 181 171 164 166 173 178 173 170 169 168 166 167 171 182 200 204 172 150 151 152 154 154 152 153 154 157 168 180 190 219 248 259 268 269 268 267 270 270 271 272 270 267 267 266 265 261 257 253
161 165 161 165 145 117 147 153 151 158 160 173 176 180 180 178 180 177 185 192 181 160 158 158 160 163 163 165 166 167 165 168 185 206 235 259 273 279 283 283 282 278 274 273 274 272 268 270 271 266 262 262 257 254
168 161 157 161 154 136 150 156 163 157 163 170 178 179 180 181 180 191 199 183 173 173 172 169 169 172 180 190 200 208 211 221 243 264 275 274 273 274 278 281 281 277 274 276 281 281 274 271 272 269 264 261 260 258
169 173 166 136 134 154 151 154 161 158 165 164 162 170 173 177 181 193 192 178 173 172 172 171 170 171 172 183 205 226 251 268 286 298 286 289 292 291 292 291 285 278 273 271 276 282 279 273 268 264 261 257 254 254
187 174 163 151 152 157 162 167 169 166 161 156 161 169 175 183 181 198 191 186 189 193 198 207 218 231 242 251 260 268 274 277 280 281 284 292 299 302 298 296 293 285 279 277 277 274 271 268 265 262 259 258 256 256
111 99 128 149 158 162 157 163 166 167 172 171 175 172 177 190 206 211 202 205 212 221 229 236 244 251 259 266 270 271 271 273 276 277 278 281 288 293 295 295 291 285 280 276 271 267 264 262 261 261 260 260 260 255
111 123 124 125 138 150 158 159 162 169 182 183 186 189 196 205 214 216 212 215 220 228 233 239 246 256 266 272 276 277 273 271 271 274 278 282 284 286 289 290 290 287 282 277 273 271 267 265 265 264 265 264 258 254
124 131 135 130 136 145 150 162 161 162 161 176 198 205 212 214 209 206 207 211 217 221 227 234 244 258 269 275 276 273 268 269 272 278 283 281 282 284 287 288 287 284 280 277 276 276 273 271 271 271 267 259 254 252
125 129 132 141 154 149 138 133 138 148 162 169 185 197 204 210 215 219 224 230 234 237 244 262 272 280 284 281 275 270 270 271 273 276 280 280 281 284 285 287 289 287 283 280 278 278 276 274 273 269 263 258 254 252
152 153 152 148 137 142 147 158 173 198 234 256 259 256 248 245 246 246 248 251 254 259 264 269 272 273 273 270 269 267 266 271 276 281 287 287 285 283 283 284 284 283 280 277 275 273 270 266 262 259 255 251 252 257
171 186 203 221 235 237 242 245 243 261 277 282 274 269 267 265 264 257 255 257 260 263 265 266 268 269 268 265 264 266 269 272 276 280 282 283 280 278 277 277 278 278 277 275 272 269 265 261 257 255 255 257 258 256
236 246 259 267 263 262 264 267 273 279 285 274 269 256 275 289 288 282 265 257 256 257 259 261 262 261 261 262 264 266 267 268 271 273 274 273 273 275 276 276 273 269 267 265 265 265 263 261 259 254 249 245 249 263
Height
2736 2739 2744 2751 2760 2771 2782 2794 2807 2819 2831 2843 2855 2867 2878 2889 2900 2907 2916 2926 2935 2942 2949 2955 2959 2963 2968 2973 2977 2983 2992 2994 2995 2999 3000 2999 3001 3003 3004 3004 3005 3008 3010 3011 3015 3016 3009 3001 3003 3004 3003 2999 2998 2997
2722 2723 2727 2734 2742 2753 2765 2780 2794 2808 2822 2836 2848 2860 2872 2884 2894 2903 2912 2921 2932 2938 2945 2948 2954 2960 2965 2970 2976 2977 2982 2986 2991 2994 2993 2995 2995 2996 2998 2998 2999 3002 3001 3003 3005 3001 3000 2999 2999 2999 2998 2997 2996 2995
2708 2707 2709 2715 2724 2737 2750 2766 2781 2798 2813 2828 2842 2855 2867 2879 2890 2898 2908 2917 2926 2934 2943 2945 2950 2956 2960 2965 2970 2974 2977 2981 2983 2987 2988 2989 2991 2991 2992 2991 2994 2994 2995 2995 2997 2994 2995 2995 2995 2995 2995 2994 2993 2992
2693 2687 2687 2691 2703 2720 2737 2754 2771 2788 2806 2822 2837 2851 2864 2877 2887 2896 2904 2914 2924 2932 2938 2943 2946 2952 2957 2961 2966 2969 2974 2976 2980 2981 2982 2983 2985 2985 2985 2987 2988 2989 2990 2988 2989 2989 2991 2991 2991 2990 2988 2988 2988 2988
2681 2673 2665 2667 2682 2705 2728 2747 2766 2783 2800 2818 2834 2849 2863 2876 2886 2896 2906 2914 2922 2934 2937 2941 2943 2948 2955 2958 2961 2965 2968 2971 2972 2975 2977 2979 2979 2982 2981 2982 2981 2982 2984 2984 2984 2985 2986 2986 2985 2984 2982 2982 2982 2983
2680 2668 2656 2655 2677 2701 2725 2745 2764 2782 2799 2816 2833 2849 2864 2876 2886 2896 2906 2913 2920 2931 2934 2941 2941 2943 2950 2954 2957 2962 2964 2966 2969 2970 2972 2974 2976 2978 2978 2977 2978 2979 2979 2979 2979 2980 2980 2980 2979 2978 2978 2977 2977 2977
2691 2683 2676 2679 2693 2713 2733 2750 2767 2786 2801 2819 2836 2851 2865 2875 2883 2893 2900 2908 2918 2924 2931 2936 2937 2939 2944 2949 2955 2959 2960 2962 2965 2967 2970 2972 2974 2975 2973 2971 2973 2973 2973 2973 2973 2974 2974 2974 2973 2972 2971 2971 2971 2971
2711 2705 2704 2708 2718 2731 2744 2760 2776 2792 2808 2825 2841 2857 2869 2880 2891 2900 2908 2914 2921 2925 2932 2937 2936 2936 2941 2946 2951 2954 2957 2960 2962 2964 2966 2968 2970 2970 2968 2968 2967 2967 2968 2968 2968 2969 2969 2968 2967 2966 2966 2965 2965 2966
2734 2729 2729 2732 2739 2748 2760 2773 2787 2802 2818 2834 2849 2864 2875 2885 2893 2903 2909 2915 2922 2930 2930 2933 2934 2935 2939 2944 2948 2951 2954 2956 2959 2961 2964 2966 2965 2965 2965 2964 2964 2964 2965 2965 2964 2964 2963 2962 2961 2961 2960 2960 2960 2960
2760 2758 2757 2759 2765 2771 2780 2791 2803 2816 2830 2844 2857 2869 2879 2886 2898 2904 2912 2917 2921 2923 2926 2927 2931 2933 2938 2940 2945 2951 2953 2956 2958 2961 2961 2960 2958 2961 2962 2962 2962 2961 2961 2962 2961 2959 2958 2957 2956 2956 2956 2956 2955 2956
2785 2784 2785 2788 2792 2797 2804 2812 2822 2832 2843 2854 2863 2872 2884 2893 2901 2907 2911 2915 2917 2918 2920 2925 2930 2933 2938 2940 2942 2948 2951 2955 2956 2957 2958 2955 2952 2955 2957 2957 2957 2957 2957 2957 2956 2955 2954 2953 2952 2952 2952 2952 2952 2953
2808 2808 2810 2812 2816 2820 2825 2832 2839 2848 2856 2864 2868 2880 2890 2898 2904 2908 2910 2914 2914 2915 2917 2922 2926 2931 2934 2939 2944 2948 2950 2954 2953 2954 2954 2949 2949 2950 2951 2951 2952 2952 2952 2952 2951 2951 2951 2950 2949 2949 2948 2948 2949 2951
2827 2828 2830 2833 2836 2841 2845 2851 2859 2865 2869 2875 2883 2890 2895 2900 2903 2903 2905 2909 2910 2911 2914 2918 2923 2928 2933 2939 2943 2947 2948 2950 2950 2950 2947 2945 2945 2946 2947 2947 2947 2948 2948 2948 2948 2948 2947 2947 2946 2946 2945 2946 2948 2950
2843 2844 2846 2848 2852 2855 2860 2866 2870 2875 2883 2888 2889 2892 2896 2897 2899 2901 2903 2907 2909 2910 2913 2918 2923 2927 2932 2938 2941 2944 2945 2946 2946 2944 2941 2941 2942 2943 2944 2945 2945 2946 2945 2945 2945 2945 2944 2944 2943 2943 2943 2944 2946 2948
2857 2858 2860 2861 2864 2868 2871 2875 2880 2886 2887 2889 2892 2894 2895 2896 2897 2899 2901 2905 2908 2911 2915 2919 2925 2929 2934 2937 2939 2940 2941 2940 2938 2936 2937 2938 2940 2941 2942 2943 2943 2943 2943 2942 2942 2942 2942 2942 2941 2941 2942 2943 2944 2946
2869 2870 2871 2872 2873 2875 2879 2884 2889 2891 2892 2893 2894 2894 2895 2896 2897 2899 2902 2905 2909 2913 2918 2923 2928 2931 2934 2936 2936 2936 2937 2934 2934 2934 2936 2938 2938 2939 2940 2940 2940 2940 2940 2940 2940 2940 2940 2940 2940 2940 2940 2941 2943 2945
2876 2877 2878 2881 2883 2885 2887 2890 2891 2892 2893 2894 2896 2896 2896 2898 2899 2901 2904 2908 2912 2917 2920 2924 2928 2931 2932 2933 2933 2932 2932 2933 2933 2935 2936 2937 2937 2938 2938 2939 2939 2938 2938 2938 2938 2938 2938 2938 2938 2939 2939 2941 2942 2943
2882 2882 2883 2885 2888 2891 2892 2892 2893 2894 2895 2897 2899 2900 2902 2903 2904 2907 2910 2912 2916 2920 2924 2926 2928 2928 2929 2929 2929 2930 2931 2933 2934 2935 2936 2936 2937 2937 2937 2937 2937 2937 2937 2937 2937 2937 2937 2938 2938 2938 2939 2939 2940 2942
2885 2887 2887 2888 2890 2893 2894 2894 2895 2897 2900 2901 2903 2904 2905 2908 2910 2913 2915 2918 2921 2923 2926 2927 2927 2926 2927 2928 2928 2930 2932 2933 2934 2935 2936 2936 2937 2936 2936 2936 2936 2936 2936 2936 2936 2937 2937 2937 2938 2938 2938 2939 2940 2940
2886 2888 2890 2891 2893 2894 2896 2897 2898 2899 2902 2904 2906 2908 2910 2912 2913 2915 2917 2920 2922 2924 2926 2926 2926 2926 2927 2928 2930 2932 2933 2934 2935 2936 2936 2936 2936 2936 2936 2936 2936 2936 2936 2936 2936 2936 2936 2936 2936 2937 2937 2937 2938 2939
2888 2890 2891 2892 2894 2896 2897 2897 2898 2900 2903 2905 2907 2910 2912 2914 2916 2917 2919 2921 2923 2924 2925 2925 2926 2927 2928 2930 2931 2932 2933 2934 2935 2936 2936 2936 2936 2936 2936 2936 2936 2936 2936 2936 2935 2935 2935 2935 2935 2935 2935 2935 2936 2937
2890 2892 2893 2894 2895 2896 2897 2897 2899 2901 2904 2906 2909 2912 2914 2916 2917 2918 2920 2922 2922 2923 2924 2925 2927 2929 2930 2931 2932 2933 2934 2935 2935 2936 2936 2936 2936 2936 2936 2935 2935 2935 2935 2934 2934 2934 2934 2933 2933 2933 2933 2933 2934 2934
2892 2894 2895 2895 2896 2896 2899 2899 2901 2902 2905 2908 2910 2913 2915 2916 2918 2920 2921 2921 2922 2924 2925 2927 2928 2930 2931 2932 2933 2934 2934 2935 2935 2935 2935 2935 2935 2935 2935 2934 2934 2933 2933 2932 2932 2932 2932 2931 2931 2931 2930 2931 2931 2931
2893 2895 2895 2895 2896 2897 2900 2901 2902 2904 2905 2908 2911 2913 2915 2917 2918 2919 2920 2921 2923 2924 2926 2927 2928 2930 2931 2932 2932 2933 2934 2934 2934 2934 2934 2933 2933 2933 2933 2932 2931 2931 2930 2930 2929 2929 2928 2928 2928 2927 2927 2928 2928 2928
2895 2896 2896 2894 2895 2898 2899 2901 2903 2905 2906 2908 2911 2912 2914 2916 2918 2919 2919 2921 2922 2924 2926 2927 2928 2929 2930 2931 2931 2932 2932 2932 2932 2932 2931 2931 2931 2930 2929 2928 2927 2927 2926 2926 2926 2925 2925 2924 2924 2924 2924 2924 2924 2924
2892 2893 2894 2893 2895 2898 2900 2902 2904 2906 2908 2909 2911 2912 2914 2916 2917 2917 2919 2921 2922 2924 2925 2926 2927 2928 2929 2929 2929 2930 2930 2930 2929 2929 2929 2928 2927 2926 2925 2925 2924 2923 2922 2922 2922 2921 2921 2920 2920 2920 2920 2920 2920 2920
2891 2892 2892 2893 2895 2897 2900 2902 2903 2906 2907 2909 2910 2912 2913 2914 2915 2917 2918 2919 2921 2922 2923 2923 2924 2925 2925 2925 2925 2926 2926 2926 2926 2926 2925 2924 2923 2923 2922 2921 2920 2920 2918 2918 2917 2917 2917 2916 2916 2916 2916 2916 2916 2915
2893 2894 2895 2896 2897 2899 2900 2902 2904 2905 2907 2908 2910 2911 2912 2912 2914 2914 2915 2917 2918 2919 2920 2920 2921 2921 2922 2922 2922 2922 2922 2922 2922 2921 2921 2920 2919 2918 2918 2917 2916 2915 2915 2914 2914 2913 2913 2913 2912 2912 2912 2912 2911 2911
2896 2897 2898 2899 2900 2901 2902 2903 2904 2905 2907 2908 2909 2909 2910 2911 2912 2913 2914 2914 2915 2916 2917 2918 2918 2919 2919 2919 2919 2918 2918 2918 2918 2917 2917 2916 2915 2915 2914 2913 2912 2911 2911 2910 2910 2910 2909 2909 2909 2908 2908 2908 2908 2908
2899 2900 2901 2902 2903 2903 2904 2905 2906 2906 2907 2908 2909 2909 2910 2910 2911 2912 2912 2913 2914 2914 2915 2915 2915 2915 2915 2915 2914 2914 2914 2913 2913 2913 2912 2912 2911 2911 2910 2909 2908 2908 2907 2907 2906 2906 2906 2905 2905 2904 2904 2904 2904 2905
2902 2903 2903 2904 2904 2905 2905 2906 2906 2907 2907 2907 2907 2908 2908 2908 2909 2909 2910 2910 2910 2911 2911 2911 2911 2910 2910 2910 2909 2909 2910 2910 2909 2909 2908 2907 2906 2906 2905 2905 2904 2904 2903 2903 2903 2902 2902 2901 2901 2901 2901 2902 2902 2902
2903 2903 2903 2904 2904 2905 2905 2905 2905 2905 2905 2905 2904 2904 2904 2904 2904 2905 2905 2905 2905 2905 2905 2905 2904 2904 2904 2904 2904 2904 2904 2903 2903 2903 2903 2902 2902 2901 2901 2900 2900 2900 2900 2899 2899 2899 2898 2898 2898 2898 2898 2899 2899 2899
2903 2903 2903 2903 2903 2903 2903 2903 2903 2902 2902 2901 2901 2901 2901 2900 2899 2899 2898 2898 2898 2898 2898 2898 2898 2898 2898 2898 2898 2897 2897 2897 2897 2898 2897 2897 2897 2897 2897 2896 2896 2896 2896 2895 2895 2895 2895 2895 2896 2896 2896 2896 2897 2897